Location: Rounton
(54.4000°N, 1.3500°W)
Time: 02:35:24
(UTC+00:00)

A-11 Canister half - Pass Details

Date: 03 December 2021
Orbit: 1524 x 1684 km, 47.3° (Epoch: 19 January)

Event Time Altitude Azimuth Distance (km) Brightness Sun altitude
Exits shadow 01:44:04 21° 99° (E) 3,122 10.7 -51.8°
Drops below altitude 10° 01:47:23 10° 85° (E) 3,906 11.4 -51.4°
Sets 01:50:52 0° 77° (ENE) 4,875 12.1 -51.1°
